Weather History for Jaipur, India

Change the Weather History Date:

Wednesday, October 30, 2013

  Actual Average Record
Temperature  
Mean Temperature 78 °F -  
Max Temperature 91 °F - - ()
Min Temperature 65 °F - - ()
Cooling Degree Days 13    
Growing Degree Days 28 (Base 50)    
Moisture  
Dew Point 52 °F    
Average Humidity 41    
Maximum Humidity 74    
Minimum Humidity 14    
Precipitation  
Precipitation 0.00 in - - ()
Sea Level Pressure  
Sea Level Pressure 29.96 in    
Wind  
Wind Speed 2 mph ()    
Max Wind Speed 9 mph    
Max Gust Speed -    
Visibility 1.4 miles    
Events      
T = Trace of Precipitation, MM = Missing Value Source: Averaged Metar Reports

Daily Weather History Graph

Daily Weather History Graph

Search for Another Location

Airport:

Trip Planner

Search our weather history database for the weather conditions in past years. The results will help you decide how hot, cold, wet, or windy it might be!

Date:

Astronomy

Oct. 30, 2013 Rise Set
Actual Time 6:35 AM IST 5:45 PM IST
Civil Twilight 6:11 AM IST 6:09 PM IST
Nautical Twilight 5:43 AM IST 6:36 PM IST
Astronomical Twilight 5:16 AM IST 7:03 PM IST
Moon 2:20 AM IST (10/30) 2:55 PM IST (10/30)
Length of Visible Light 11h 58m
Length of Day
11h 10m
Waning Crescent, 20% of the Moon is Illuminated
Oct 30
Waning Crescent
Nov 3
New
Nov 10
First Quarter
Nov 17
Full
Nov 26
Last Quarter

Hourly Weather History & Observations

Time (IST) Temp. Heat Index Dew Point Humidity Pressure Visibility Wind Dir Wind Speed Gust Speed Precip Events Conditions
12:00 AM 71.6 °F - 51.8 °F 50% 29.95 in 1.2 mi West 3.5 mph - N/A   Smoke
1:00 AM 75.2 °F - 48.2 °F 38% 29.95 in 1.2 mi Variable 1.2 mph - N/A   Smoke
2:00 AM 77.0 °F - 48.2 °F 36% 29.95 in 1.2 mi Variable 4.6 mph - N/A   Smoke
2:30 AM 77 °F - 48 °F 25% 29.87 in 1 mi NE 4.6 mph - -   Smoke
3:00 AM 69.8 °F - 50.0 °F 49% 29.95 in 1.2 mi Variable 1.2 mph - N/A   Smoke
4:00 AM 68.0 °F - 51.8 °F 56% 29.95 in 1.2 mi Calm Calm - N/A   Smoke
5:00 AM 68.0 °F - 51.8 °F 56% 29.95 in 1.2 mi Calm Calm - N/A   Smoke
5:30 AM 67 °F - 52 °F 49% 29.91 in 1 mi Calm Calm - -   Smoke
6:00 AM 66.2 °F - 53.6 °F 64% 29.98 in 1.2 mi Calm Calm - N/A   Smoke
7:00 AM 66.2 °F - 53.6 °F 64% 30.01 in 1.2 mi Variable 1.2 mph - N/A   Smoke
8:00 AM 71.6 °F - 57.2 °F 60% 30.04 in 1.2 mi Calm Calm - N/A   Smoke
8:30 AM 73 °F - 59 °F 52% 29.97 in 1 mi Calm Calm - -   Smoke
9:00 AM 80.6 °F 80.5 °F 55.4 °F 42% 30.04 in 0.9 mi Variable 1.2 mph - N/A   Smoke
10:00 AM 82.4 °F - 51.8 °F 35% 30.06 in 1.6 mi Variable 9.2 mph - N/A   Smoke
11:00 AM 86.0 °F - 51.8 °F 31% 30.04 in 1.6 mi Variable 6.9 mph - N/A   Smoke
11:30 AM 86 °F - 53 °F 22% 29.95 in 1 mi NW 4.6 mph - -   Haze
1:00 PM 87.8 °F - 46.4 °F 24% 29.98 in 2.2 mi Variable 4.6 mph - N/A   Haze
2:00 PM 89.6 °F - 46.4 °F 22% 29.95 in 2.2 mi SSE 4.6 mph - N/A   Haze
2:30 PM 91 °F - 47 °F 14% 29.86 in 1 mi NW 1.2 mph - -   Haze
2:30 PM 89.6 °F - 46.4 °F 22% 29.95 in 2.2 mi Variable 1.2 mph - N/A   Haze
3:00 PM 89.6 °F - 46.4 °F 22% 29.95 in 2.2 mi Variable 5.8 mph - N/A   Haze
4:00 PM 89.6 °F - 46.4 °F 22% 29.92 in 2.2 mi Variable 4.6 mph - N/A   Haze
5:00 PM 87.8 °F - 50.0 °F 27% 29.92 in 2.2 mi Calm Calm - N/A   Haze
6:00 PM 80.6 °F 84.6 °F 71.6 °F 74% 29.95 in 2.2 mi Calm Calm - N/A   Haze
7:30 PM 78.8 °F - 53.6 °F 42% 29.98 in 1.1 mi Calm Calm - N/A   Smoke
8:30 PM 77 °F - 55 °F 36% 29.90 in 1 mi 2.3 mph - -   Smoke
9:00 PM 73.4 °F - 55.4 °F 53% 29.98 in 0.6 mi Calm Calm - N/A   Smoke
11:00 PM 75.2 °F - 57.2 °F 53% 29.98 in 1.1 mi Calm Calm - N/A   Smoke
11:30 PM 76 °F - 54 °F 37% 29.92 in 1 mi North 3.5 mph - -   Smoke